* Astronomy

Members Login
Username 
 
Password 
    Remember Me  
Post Info TOPIC: Asteroid 2013 GF69


L

Posts: 131433
Date:
RE: Asteroid 2013 GF69
Permalink  
 


Orbital elements:
2013 GF69                                           PHA, Earth MOID = 0.0160 AU
Epoch 2014 Dec. 9.0 TT = JDT 2457000.5                  MPC
M 150.57936              (2000.0)            P               Q
n   0.35703411     Peri.  153.03353     +0.84854956     +0.52889586
a   1.9678693      Node   174.95529     -0.51135587     +0.82713516
e   0.4974772      Incl.    9.99256     -0.13593682     +0.19004364
P   2.76           H   19.5           G   0.15           U   2

MPEC 2015 - C13



__________________


L

Posts: 131433
Date:
Permalink  
 

Orbital elements:
2013 GF69                                           PHA, Earth MOID = 0.0063 AU
Epoch 2013 Apr. 18.0 TT = JDT 2456400.5                 MPC
M 296.95647              (2000.0)            P               Q
n   0.35194823     Peri.  152.88741     +0.85531682     +0.51794225
a   1.9867819      Node   175.84810     -0.50193437     +0.83457937
e   0.5088985      Incl.   10.34289     -0.12843297     +0.18765152
P   2.80           H   19.4           G   0.15           U   8

MPEC 2013 - G67

Key to Orbital elements



__________________
Page 1 of 1  sorted by
 
Quick Reply

Please log in to post quick replies.



Create your own FREE Forum
Report Abuse
Powered by ActiveBoard